Location: Newark
(22.3060°N, 114.2134°E)
Time: 22:30:24
(UTC+00:00)

N. Korean satellite - Visible Passes

Search period start: 06 April 2020 00:00
Search period end: 16 April 2020 00:00
Orbit: 454 x 507 km, 97.2° (Epoch: 05 April)

Date Brightness Start Highest point End Pass type
(mag) Time Alt. Az. Time Alt. Az. Time Alt. Az.
07 Apr 8.1 21:35:48 10° NNE 21:39:01 37° E 21:42:13 10° S visible
08 Apr 9.6 21:11:19 10° ENE 21:13:22 15° E 21:15:26 10° SE visible
11 Apr 8.8 21:26:55 10° NE 21:29:53 27° E 21:32:52 10° SSE visible
12 Apr 9.9 21:03:10 10° ENE 21:04:13 11° E 21:05:16 10° ESE visible
15 Apr 9.4 21:18:07 10° NE 21:20:43 20° E 21:23:21 10° SSE visible
